Home   Weather   Norfolk   Past weeks

Flag for USA Past Weather in Norfolk, Virginia, USA — Yesterday and Last 2 Weeks

Now
74 °F

Broken clouds.


Feels Like: 77 °F
Forecast: 53 / 77 °F
Wind: 8 mph from South

Location: Norfolk Naval Air Station

Current Time: Feb 25, 2017 at 11:40:39 am

Latest Report: Feb 25, 2017 at 10:59 am


Visibility: 10 mi

Pressure: 29.71 "Hg

Humidity: 60%

Dew Point: 59 °F

Location of NorfolkLocation

Past Weather in Norfolk — Graph

°F

Norfolk Temperature Yesterday

Maximum temperature yesterday: 73 °F (at 10:59 am)
Minimum temperature yesterday: 51 °F (at 6:59 am)
Average temperature yesterday: 64 °F

High & Low Weather Summary for the Past Weeks

 TemperatureHumidityPressure
High81 °F (Feb 12, 1:59 pm)97% (Feb 13, 1:59 am)30.48 "Hg (Feb 13, 1:59 am)
Low27 °F (Feb 17, 5:59 am)22% (Feb 18, 2:59 pm)29.46 "Hg (Feb 15, 2:37 pm)
Average53 °F59%29.95 "Hg
* Reported Feb 10 9:59 am — Feb 25 9:59 am, Norfolk, Weather by CustomWeather, © 2017

Note: Actual official high and low records may vary slightly from our data, if they occured in-between our weather recording intervals... More about our weather records

Advertising

Norfolk Weather History for the Previous 24 Hours

Scroll right to see more
 ConditionsComfort  
Time TempWeatherWind HumidityBarometerVisibility
9:59 am
Sat, Feb 25
70 °FBroken clouds.9 mph68%29.74 "Hg10 mi
8:59 am66 °FScattered clouds.9 mph78%29.77 "Hg10 mi
7:59 am60 °FPassing clouds.3 mph93%29.78 "Hg7 mi
6:59 am56 °FFog.3 mph93%29.78 "Hg4 mi
5:59 am55 °FFog.3 mph93%29.79 "Hg6 mi
4:59 am56 °FClear.3 mph93%29.79 "Hg7 mi
3:59 am56 °FFog.No wind93%29.79 "Hg6 mi
2:59 am57 °FClear.No wind90%29.81 "Hg7 mi
1:59 am60 °FClear.5 mph86%29.83 "Hg9 mi
12:59 am61 °FClear.6 mph83%29.83 "Hg9 mi
11:59 pm
Fri, Feb 24
62 °FClear.7 mph80%29.83 "Hg9 mi
10:59 pm63 °FClear.7 mph78%29.85 "Hg9 mi
9:59 pm63 °FClear.6 mph81%29.86 "Hg10 mi
8:59 pm65 °FClear.5 mph76%29.87 "Hg10 mi
7:59 pm66 °FPassing clouds.9 mph75%29.87 "Hg10 mi
6:59 pm67 °FPassing clouds.12 mph76%29.87 "Hg10 mi
5:59 pm70 °FPassing clouds.12 mph68%29.87 "Hg9 mi
4:59 pm73 °FPassing clouds.9 mph59%29.87 "Hg10 mi
3:59 pm73 °FScattered clouds.7 mph57%29.87 "Hg10 mi
2:59 pm73 °FBroken clouds.No wind57%29.87 "Hg10 mi
1:59 pm67 °FBroken clouds.7 mph66%29.89 "Hg10 mi
12:59 pm69 °FScattered clouds.8 mph63%29.91 "Hg10 mi
Weather by CustomWeather, © 2017

See weather overviewHow to use our weather pages